Content
SEND FEEDBACK

Daily
Averages
Monthly
Summary
United States of America

PARADISE VALLEY, ARIZONA


Home > North America > United States > Arizona
Elevation: 1420 feet     Latitude: 33 33N     Longitude: 111 58W

WEATHER
 
SELECT A DAY
Number of Records: 155,978;   Date Range: 1/1/95 - 10/24/14
 
SHARE

PRINT THIS DATA

[ ← Previous Day ]
WEATHER ALMANAC - JANUARY 31, 2013
[ Next Day → ]
[ °C ]   °F
Weather ElementAverageHighLow
Temperature52.4 °F67.8 °F (3:58 pm)38.3 °F (7:58 am)
Dewpoint38.2 °F43.3 °F (9:58 pm)35.1 °F (2:58 pm)
Humidity62.8 %99 % (7:58 am)30 % (3:58 pm)
Barometer30.18 in30.25 in (1:58 am)30.09 in (4:58 pm)
Wind Speed4.7 mph9.2 mph (5:58 pm)
Weather ElementAverage
Visibility10 mi
Wind DirectionSSE (144.8 °)

Weather ElementTotal
Precipitation---
Heating Degree Days12 (Base 65)
Growing Degree Days3.1 (Base 50)
Averaged from 23 records on January 31, 2013
WEATHER CONDITIONS BREAKOUT
WIND DIRECTION BREAKOUT
WEATHER BY HOUR - JANUARY 31, 2013
[ °C ]   °F
Local TimeTemperatureDewpointHumidityBarometerVisibilityWind DirectionWind SpeedGust SpeedPrecipitationEventsConditions
1:58 AM42.4 °F37.6 °F83 %30.25 in10.0 miNorth (360°)6.9 mphClear
2:58 AM41.9 °F37.6 °F85 %30.25 in10.0 miENE (70°)3.5 mphClear
3:58 AM40.8 °F37.8 °F89 %30.24 in10.0 miNorth (360°)3.5 mphClear
4:58 AM42.1 °F36.3 °F80 %30.22 in10.0 miNorth (10°)4.6 mphClear
5:58 AM40.3 °F37.4 °F89 %30.22 in10.0 miNNE (30°)2.3 mphClear
6:58 AM40.1 °F36.7 °F88 %30.23 in10.0 miNE (40°)3.5 mphClear
7:58 AM38.3 °F37.9 °F99 %30.24 in10.0 miNNW (330°)6.9 mphClear
8:58 AM45.1 °F38.8 °F79 %30.23 in10.0 miNorth (10°)3.5 mphClear
9:58 AM48.7 °F37.4 °F65 %30.23 in10.0 miNE (40°)1.2 mphClear
10:58 AM52.7 °F35.2 °F52 %30.25 in10.0 miSSE (150°)2.3 mphClear
11:58 AM55.8 °F35.2 °F46 %30.23 in10.0 miVariable1.2 mphClear
12:58 PM60.1 °F38.1 °F44 %30.18 in10.0 miNNE (30°)5.8 mphClear
1:58 PM64.2 °F36.0 °F35 %30.15 in10.0 miVariable2.3 mphClear
2:58 PM66.7 °F35.1 °F31 %30.13 in10.0 miNorth (360°)1.2 mphMostly Cloudy
3:58 PM67.8 °F35.2 °F30 %30.11 in10.0 miWSW (240°)5.8 mphClear
4:58 PM66.9 °F37.4 °F34 %30.09 in10.0 miSSW (200°)5.8 mphClear
5:58 PM64.0 °F40.6 °F42 %30.09 in10.0 miSSW (200°)9.2 mphMostly Cloudy
6:58 PM60.6 °F41.0 °F48 %30.11 in10.0 miSSW (200°)9.2 mphMostly Cloudy
7:58 PM58.8 °F39.0 °F48 %30.12 in10.0 miSSW (200°)5.8 mphMostly Cloudy
8:58 PM53.1 °F42.1 °F66 %30.12 in10.0 miNNE (30°)4.6 mphMostly Cloudy
9:58 PM51.4 °F43.3 °F74 %30.11 in10.0 miNNW (340°)8.1 mphMostly Cloudy
10:58 PM53.1 °F40.6 °F63 %30.12 in10.0 miEast (100°)3.5 mphClear
11:58 PM49.3 °F41.7 °F75 %30.14 in10.0 miNNE (30°)6.9 mphClear
Hourly data recorded from KLUF, located miles away from Paradise Valley, Arizona







STORIES FROM OUR PARTNERS